Location: Horowhenua
(40.7500°S, 175.3333°E)
Time: 05:21:31
(UTC+00:00)

Cosmos 1821 Rocket - Pass Details

Date: 28 January 2023
Orbit: 944 x 1004 km, 82.9° (Epoch: 01 April)

Event Time Altitude Azimuth Distance (km) Brightness Sun altitude
Exits shadow 12:50:58 76° 237° (WSW) 1,032 4.0 -30.9°
Drops below altitude 10° 12:57:05 10° 176° (S) 2,762 7.3 -30.8°
Sets 12:59:37 0° 174° (S) 3,708 8.2 -30.7°
